Location: Newark
(39.5667°N, 8.9833°E)
Time: 13:54:07
(UTC+00:00)

Vanguard 2 Rocket - All Passes

Search period start: 20 October 2019 00:00
Search period end: 30 October 2019 00:00
Orbit: 553 x 3327 km, 32.9° (Epoch: 18 October)

Date Brightness Start Highest point End Pass type
(mag) Time Alt. Az. Time Alt. Az. Time Alt. Az.
20 Oct - 05:52:05 10° S 06:04:22 27° SE 06:19:12 10° E daylight
20 Oct - 08:02:41 10° SW 08:19:58 55° SSE 08:38:50 10° E daylight
20 Oct - 10:17:56 10° WSW 10:37:57 71° S 10:55:08 10° E daylight
20 Oct - 12:36:00 10° W 12:55:35 61° SSW 13:09:10 10° ESE daylight
20 Oct - 14:56:07 10° W 15:10:20 32° SW 15:20:00 10° SSE daylight
21 Oct - 04:55:14 10° SSE 05:04:00 18° SE 05:14:25 10° E visible
21 Oct - 07:02:59 10° SW 07:18:21 46° SSE 07:36:52 10° E daylight
21 Oct - 09:16:41 10° WSW 09:35:40 68° S 09:54:17 10° E daylight
21 Oct - 11:33:41 10° W 11:53:55 68° SSW 12:09:24 10° ESE daylight
21 Oct - 13:52:50 10° W 14:10:03 43° SW 14:21:42 10° SSE daylight
21 Oct - 16:17:00 10° WSW 16:22:49 13° SW 16:27:43 10° SSW daylight
22 Oct - 06:04:01 10° SSW 06:17:16 36° SE 06:34:13 10° E daylight
22 Oct - 08:16:03 10° WSW 08:33:30 63° SSE 08:52:56 10° E daylight
22 Oct - 10:31:50 10° W 10:51:48 71° S 11:09:07 10° ESE daylight
22 Oct - 12:50:02 10° W 13:09:07 54° SSW 13:22:43 10° SE daylight
22 Oct - 15:11:11 10° W 15:23:13 23° SW 15:32:07 10° S daylight
23 Oct - 05:06:00 10° S 05:16:44 26° SE 05:30:39 10° E visible
23 Oct - 07:16:03 10° SW 07:31:40 55° SSE 07:51:04 10° E daylight
23 Oct - 09:30:30 10° WSW 09:49:29 71° S 10:08:18 10° E daylight
23 Oct - 11:47:41 10° W 12:07:37 62° SSW 12:23:08 10° ESE daylight
23 Oct - 14:07:17 10° W 14:23:07 34° SW 14:34:29 10° SSE daylight
24 Oct - 04:09:35 10° SSE 04:16:44 16° SE 04:25:27 10° E visible
24 Oct - 06:16:42 10° SW 06:30:20 45° SSE 06:48:39 10° E daylight
24 Oct - 08:29:44 10° WSW 08:47:12 68° S 09:06:58 10° E daylight
24 Oct - 10:45:49 10° W 11:05:38 68° SSW 11:22:59 10° ESE daylight
24 Oct - 13:04:13 10° W 13:22:25 45° SSW 13:35:54 10° SSE daylight
24 Oct - 15:27:41 10° W 15:35:56 15° SW 15:42:45 10° SSW daylight
25 Oct - 05:18:05 10° SSW 05:29:36 35° SE 05:45:38 10° E visible
25 Oct - 07:29:32 10° WSW 07:45:11 63° SSE 08:05:08 10° E daylight
25 Oct - 09:44:27 10° W 10:03:21 71° S 10:22:15 10° ESE daylight
25 Oct - 12:01:46 10° W 12:21:07 54° SSW 12:36:35 10° SE daylight
25 Oct - 14:22:19 10° W 14:35:58 25° SW 14:46:30 10° S daylight
26 Oct - 04:20:22 10° S 04:29:27 24° SE 04:41:47 10° E visible
26 Oct - 06:29:54 10° SW 06:43:38 54° SSE 07:02:49 10° E daylight
26 Oct - 08:43:36 10° WSW 09:01:01 71° S 09:20:57 10° E daylight
26 Oct - 10:59:51 10° W 11:19:19 62° SSW 11:36:38 10° ESE daylight
26 Oct - 13:18:40 10° W 13:35:29 35° SW 13:48:33 10° SSE daylight
27 Oct - 03:24:31 10° SSE 03:29:49 14° SE 03:36:12 10° E visible
27 Oct - 05:30:53 10° SSW 05:42:41 44° SSE 06:00:03 10° E daylight
27 Oct - 07:43:16 10° WSW 07:58:54 68° S 08:19:07 10° E daylight
27 Oct - 09:58:27 10° W 10:17:10 68° SSW 10:36:03 10° ESE daylight
27 Oct - 12:15:58 10° W 12:34:25 45° SSW 12:49:39 10° SSE daylight
27 Oct - 14:38:39 10° W 14:48:41 17° SW 14:57:09 10° SSW daylight
28 Oct - 04:32:33 10° SSW 04:42:20 33° SE 04:56:48 10° E visible
28 Oct - 06:43:28 10° WSW 06:57:11 62° SSE 07:16:51 10° E daylight
28 Oct - 08:57:35 10° W 09:14:53 70° S 09:34:51 10° ESE daylight
28 Oct - 11:13:57 10° W 11:32:50 54° SSW 11:49:59 10° SE daylight
28 Oct - 13:33:43 10° W 13:48:21 26° SW 14:00:27 10° S daylight
29 Oct - 03:35:08 10° S 03:42:34 21° SE 03:52:51 10° E visible
29 Oct - 05:44:11 10° SW 05:56:00 53° SSE 06:14:11 10° E daylight
29 Oct - 07:57:12 10° WSW 08:12:44 70° S 08:33:04 10° E daylight
29 Oct - 10:12:32 10° W 10:30:52 62° SSW 10:49:37 10° SE daylight
29 Oct - 12:30:28 10° W 12:47:31 36° SW 13:02:10 10° SSE daylight
